STARLINK-2524, 48304

Orbit data source: Space-Track

STARLINK-2524, 48304 is a payload satellite owned by SpaceX/Seattle (US) in LEO that was launched on Thu, 29 Apr 2021 UTC via an FALCON 9 launch vehicle from the Air Force Eastern Test Range (AFETR). Payload-class satellites include a variety of spacecraft equipped with specific instruments for various scientific and technological missions. These include communications satellites like Starlink; space stations such as the ISS; scientific satellites like the Hubble; Earth observation satellites from companies like Planet Labs, Umbra, and HawkEye 360; GPS; miniature CubeSats for education and research; and military/defense satellites.

Loading next visibility...
Identifier
48304, 2021-036AE
Orbit
LEO
Country
Flag of USUS
Related business
Manufacturer
SpaceX/Seattle
Mission
Operational Commercial Communications
Bus & Motor
STARLINK, Unknown motor
Mass
260 kg wet, ~248 kg dry
Launch date (UTC)
2021-04-29 (5 years ago)
Launch vehicle
FALCON 9
Launch site
Air Force Eastern Test Range (AFETR)
Object type
Payload
Rocket body
Debris
Shape & HBR
Box + 1 Pan, 10.1 m
Radar Cross Section
13.562 m², Large (>1 m²)

Expand to show TLE details & history
Last TLE update: 2 days ago

TLE from 2 days ago
0 STARLINK-2524
1 48304U 21036AE  25312.16800731 -.00000731  00000-0 -30174-4 0  9992
2 48304  53.0545 277.1487 0001360  87.4519 272.6625 15.06395872249857
Epoch: 2025-11-08T04:01Z
TLE epoch observation values (Epoch: 2025-11-08T04:01:55.831Z)
Latitude
-0.00008°
Longitude
169.06451°
Altitude
548.06 km
Speed
7.589 km/s
True Right ascension
18h 28m 35s
True Declination
0° 00' 00"
Sunlit
Object was in daylight at epoch
Visualization orbit readout
Latitude
Unknown
Longitude
Unknown
Altitude
Unknown
Speed
Unknown
Apparent Right ascension
Unknown
Apparent Declination
Unknown
Sunlit
N/A
Visualization observer readout
Local Sidereal Time
19:50:16
Azimuth
Unknown
Elevation
Unknown
Doppler factor
Unknown
Orbital elements
Apogee altitude
548.437 km
Perigee altitude
546.553 km
Semi-major axis
6,925.632 km
Eccentricity
0.00014
Inclination
53.0545°
RAAN
277.1487°
Arg. of periapsis
87.4519°
True anomaly
272.64693°
Mean anomaly
272.6625°
Eccentric anomaly
272.65472°
Mean motion
3.76577 °/min
Orbital period
95.6 mins
BSTAR
-0.000030174
Loading maneuver chart data...
Computing Atmospheric mass density...
Loading historical data...
Loading historical data...
Loading historical data...
Loading historical data...
Loading historical data...
Loading historical data...
Loading historical data...

Documentation

Showing up to 5 results
|